Weather History for LTCC - November, 2012

Change the Weather History Date:

Wednesday, November 21, 2012

  Actual Average Record
Temperature  
Mean Temperature 54 °F -  
Max Temperature 65 °F 53 °F 69 °F (1998)
Min Temperature 42 °F 35 °F 28 °F (2006)
Degree Days  
Heating Degree Days 12    
Growing Degree Days 4 (Base 50)    
Moisture  
Dew Point 43 °F    
Average Humidity 71    
Maximum Humidity 87    
Minimum Humidity 33    
Precipitation  
Precipitation 0.00 in 0.09 in - ()
Sea Level Pressure  
Sea Level Pressure 30.06 in    
Wind  
Wind Speed 3 mph ()    
Max Wind Speed 7 mph    
Max Gust Speed -    
Visibility 6.9 miles    
Events      
Averages and records for this station are not official NWS values.
T = Trace of Precipitation, MM = Missing Value Source: Averaged Metar Reports

Daily Weather History Graph

Daily Weather History Graph

Search for Another Location

Airport or City:

Trip Planner

Search our weather history database for the weather conditions in past years. The results will help you decide how hot, cold, wet, or windy it might be!

Date:

Astronomy

Nov. 21, 2012 Rise Set
Actual Time 6:06 AM EET 4:03 PM EET
Civil Twilight 5:37 AM EET 4:32 PM EET
Nautical Twilight 5:05 AM EET 5:04 PM EET
Astronomical Twilight 4:34 AM EET 5:35 PM EET
Moon 12:03 PM EET (11/21) No Moon Set
Length of Visible Light 10h 54m
Length of Day
9h 57m
First Quarter, 58% of the Moon is Illuminated
Nov 21
First Quarter
Nov 28
Full
Dec 6
Last Quarter
Dec 13
New
Dec 20
First Quarter

Hourly Weather History & Observations

Time (EET) Temp. Windchill Dew Point Humidity Pressure Visibility Wind Dir Wind Speed Gust Speed Precip Events Conditions
12:20 AM 46.4 °F 44.3 °F 41.0 °F 81% 30.06 in - West 4.6 mph - N/A   Clear
12:50 AM 48.2 °F - 41.0 °F 76% 30.06 in - WSW 3.5 mph - N/A   Clear
1:20 AM 48.2 °F - 41.0 °F 76% 30.06 in - West 4.6 mph - N/A   Clear
1:50 AM 44.6 °F 42.2 °F 41.0 °F 87% 30.06 in - West 4.6 mph - N/A   Clear
2:00 AM 45 °F - 40 °F 78% 30.06 in 12 mi West 4.6 mph - -   Partly Cloudy
2:20 AM 44.6 °F 42.2 °F 41.0 °F 87% 30.06 in - WNW 4.6 mph - N/A   Clear
2:50 AM 46.4 °F 45.2 °F 41.0 °F 81% 30.06 in - WNW 3.5 mph - N/A   Clear
3:20 AM 44.6 °F 40.7 °F 41.0 °F 87% 30.06 in - West 6.9 mph - N/A   Clear
3:50 AM 46.4 °F 44.3 °F 41.0 °F 81% 30.06 in - NW 4.6 mph - N/A   Clear
4:20 AM 42.8 °F 40.1 °F 39.2 °F 87% 30.06 in - NW 4.6 mph - N/A   Clear
4:50 AM 44.6 °F 42.2 °F 41.0 °F 87% 30.06 in - West 4.6 mph - N/A   Clear
5:20 AM 46.4 °F 45.2 °F 41.0 °F 81% 30.06 in - WNW 3.5 mph - N/A   Clear
5:50 AM 44.6 °F 43.1 °F 39.2 °F 81% 30.06 in - NW 3.5 mph - N/A   Clear
6:20 AM 44.6 °F - 41.0 °F 87% 30.09 in - WNW 2.3 mph - N/A   Clear
6:50 AM 46.4 °F 45.2 °F 42.8 °F 87% 30.09 in - WNW 3.5 mph - N/A   Clear
7:20 AM 48.2 °F - 44.6 °F 87% 30.09 in 6.2 mi West 3.5 mph - N/A   Mostly Cloudy
7:50 AM 51.8 °F - 44.6 °F 76% 30.09 in 6.2 mi Variable 1.2 mph - N/A   Mostly Cloudy
8:00 AM 51 °F - 44 °F 70% 30.11 in 12 mi Calm Calm - -   Scattered Clouds
8:20 AM 53.6 °F - 44.6 °F 72% 30.09 in 6.2 mi Calm Calm - N/A   Mostly Cloudy
8:50 AM 53.6 °F - 46.4 °F 77% 30.12 in 6.2 mi Calm Calm - N/A   Mostly Cloudy
9:20 AM 55.4 °F - 42.8 °F 63% 30.09 in 6.2 mi WNW 3.5 mph - N/A   Mostly Cloudy
9:50 AM 57.2 °F - 46.4 °F 67% 30.09 in 6.2 mi Variable 1.2 mph - N/A   Mostly Cloudy
10:20 AM 59.0 °F - 46.4 °F 63% 30.09 in 6.2 mi East 3.5 mph - N/A   Mostly Cloudy
10:50 AM 59.0 °F - 48.2 °F 67% 30.06 in 6.2 mi Variable 2.3 mph - N/A   Mostly Cloudy
11:20 AM 60.8 °F - 44.6 °F 55% 30.06 in 6.2 mi East 3.5 mph - N/A   Scattered Clouds
11:50 AM 62.6 °F - 42.8 °F 48% 30.06 in 6.2 mi East 3.5 mph - N/A   Scattered Clouds
12:20 PM 62.6 °F - 42.8 °F 48% 30.06 in 6.2 mi Variable 2.3 mph - N/A   Scattered Clouds
12:50 PM 62.6 °F - 42.8 °F 48% 30.04 in 6.2 mi Variable 1.2 mph - N/A   Partly Cloudy
1:20 PM 64.4 °F - 42.8 °F 45% 30.04 in 6.2 mi Calm Calm - N/A   Partly Cloudy
1:50 PM 64.4 °F - 42.8 °F 45% 30.04 in - Variable 1.2 mph - N/A   Clear
2:00 PM 64 °F - 42 °F 33% 30.03 in 6 mi East 1.2 mph - -  
2:20 PM 62.6 °F - 42.8 °F 48% 30.04 in - Calm Calm - N/A   Clear
2:50 PM 64.4 °F - 41.0 °F 42% 30.04 in - Calm Calm - N/A   Clear
3:20 PM 62.6 °F - 42.8 °F 48% 30.04 in - ENE 1.2 mph - N/A   Clear
3:50 PM 60.8 °F - 42.8 °F 52% 30.04 in - Calm Calm - N/A   Clear
4:20 PM 59.0 °F - 44.6 °F 59% 30.04 in - Calm Calm - N/A   Clear
4:50 PM 57.2 °F - 42.8 °F 59% 30.04 in - Calm Calm - N/A   Clear
5:20 PM 57.2 °F - 42.8 °F 59% 30.06 in - Calm Calm - N/A   Clear
5:50 PM 55.4 °F - 42.8 °F 63% 30.06 in - Calm Calm - N/A   Clear
6:20 PM 51.8 °F - 44.6 °F 76% 30.06 in - Calm Calm - N/A   Clear
6:50 PM 50.0 °F - 44.6 °F 82% 30.06 in - West 3.5 mph - N/A   Clear
7:20 PM 51.8 °F - 44.6 °F 76% 30.06 in 6.2 mi WSW 3.5 mph - N/A   Scattered Clouds
7:50 PM 50.0 °F - 44.6 °F 82% 30.06 in 6.2 mi WSW 4.6 mph - N/A   Scattered Clouds
8:00 PM 50 °F - 43 °F 69% 30.07 in 12 mi WSW 4.6 mph - -   Scattered Clouds
8:20 PM 50.0 °F - 44.6 °F 82% 30.06 in 6.2 mi WNW 4.6 mph - N/A   Scattered Clouds
8:50 PM 48.2 °F - 42.8 °F 82% 30.06 in 6.2 mi NW 4.6 mph - N/A   Scattered Clouds
9:20 PM 46.4 °F 45.2 °F 42.8 °F 87% 30.06 in 6.2 mi WSW 3.5 mph - N/A   Scattered Clouds
9:50 PM 50.0 °F - 44.6 °F 82% 30.06 in 6.2 mi Calm Calm - N/A   Scattered Clouds
10:50 PM 50.0 °F - 44.6 °F 82% 30.06 in 6.2 mi Calm Calm - N/A   Scattered Clouds
11:20 PM 48.2 °F - 44.6 °F 87% 30.06 in 6.2 mi Calm Calm - N/A   Scattered Clouds
11:50 PM 48.2 °F - 44.6 °F 87% 30.06 in 6.2 mi SSW 1.2 mph - N/A   Scattered Clouds